Location: Amsterdam
(30.7274°N, 84.4357°W)
Time: 00:48:39
(UTC+00:00)

Courier 1B Rocket - Pass Details

Date: 14 February 2026
Orbit: 920 x 1201 km, 28.2° (Epoch: 10 March)

Event Time Altitude Azimuth Distance (km) Brightness Sun altitude
Rises 07:56:22 0° 272° (W) 3,879 - -56.3°
Reaches altitude 10° 07:59:26 10° 262° (W) 2,966 - -55.7°
Maximum altitude 08:05:37 30° 205° (SSW) 1,941 - -54.5°
Drops below altitude 10° 08:12:05 10° 147° (SSE) 3,096 - -53.2°
Sets 08:15:21 0° 137° (SE) 4,076 - -52.5°
